Time,TemperatureF,DewpointF,PressureIn,WindDirection,WindDirectionDegrees,WindSpeedMPH,WindSpeedGustMPH,Humidity,HourlyPrecipIn,Conditions,Clouds,dailyrainin,SolarRadiationWatts/m^2,SoftwareType,DateUTC
2013-09-28 00:04:00,52.0,51.0,-100.00,NNW,330,1.0,2.0,97,0.00,,,0.00,0.000000,,2013-09-28 04:04:00,
2013-09-28 00:11:00,51.0,51.0,-100.00,NW,312,2.0,3.0,99,0.00,,,0.00,0.000000,,2013-09-28 04:11:00,
2013-09-28 00:43:00,51.0,51.0,-100.00,NW,312,2.0,3.0,99,0.00,,,0.00,0.000000,,2013-09-28 04:43:00,
2013-09-28 00:54:00,51.0,51.0,-100.00,NW,312,2.0,3.0,99,0.00,,,0.00,0.000000,,2013-09-28 04:54:00,
2013-09-28 01:03:00,51.0,51.0,-100.00,NW,312,2.0,3.0,99,0.00,,,0.00,0.000000,,2013-09-28 05:03:00,
2013-09-28 01:11:00,51.0,51.0,-100.00,NNE,15,1.0,3.0,99,0.00,,,0.00,0.000000,,2013-09-28 05:11:00,
2013-09-28 01:43:00,51.0,51.0,-100.00,NNE,15,1.0,3.0,99,0.00,,,0.00,0.000000,,2013-09-28 05:43:00,
2013-09-28 01:53:00,51.0,51.0,-100.00,NNE,15,1.0,3.0,99,0.00,,,0.00,0.000000,,2013-09-28 05:53:00,
2013-09-28 02:02:00,51.0,51.0,-100.00,NNE,15,1.0,3.0,99,0.00,,,0.00,0.000000,,2013-09-28 06:02:00,
2013-09-28 02:11:00,52.0,51.0,-100.00,SE,142,2.0,4.0,98,0.00,,,0.00,0.000000,,2013-09-28 06:11:00,
2013-09-28 02:42:00,52.0,51.0,-100.00,SE,142,2.0,4.0,98,0.00,,,0.00,0.000000,,2013-09-28 06:42:00,
2013-09-28 02:52:00,52.0,51.0,-100.00,SE,142,2.0,4.0,98,0.00,,,0.00,0.000000,,2013-09-28 06:52:00,
2013-09-28 03:02:00,52.0,51.0,-100.00,SE,142,2.0,4.0,98,0.00,,,0.00,0.000000,,2013-09-28 07:02:00,
2013-09-28 03:11:00,54.0,53.0,-100.00,SSW,199,2.0,4.0,95,0.00,,,0.00,0.000000,,2013-09-28 07:11:00,
2013-09-28 03:42:00,54.0,53.0,-100.00,SSW,199,2.0,4.0,95,0.00,,,0.00,0.000000,,2013-09-28 07:42:00,
2013-09-28 03:52:00,54.0,53.0,-100.00,SSW,199,2.0,4.0,95,0.00,,,0.00,0.000000,,2013-09-28 07:52:00,
2013-09-28 04:02:00,54.0,53.0,-100.00,SSW,199,2.0,4.0,95,0.00,,,0.00,0.000000,,2013-09-28 08:02:00,
2013-09-28 04:11:00,55.0,53.0,-100.00,SW,234,3.0,5.0,92,0.00,,,0.00,0.000000,,2013-09-28 08:11:00,
2013-09-28 04:43:00,55.0,53.0,-100.00,SW,234,3.0,5.0,92,0.00,,,0.00,0.000000,,2013-09-28 08:43:00,
2013-09-28 04:53:00,55.0,53.0,-100.00,SW,234,3.0,5.0,92,0.00,,,0.00,0.000000,,2013-09-28 08:53:00,
2013-09-28 05:02:00,55.0,53.0,-100.00,SW,234,3.0,5.0,92,0.00,,,0.00,0.000000,,2013-09-28 09:02:00,
2013-09-28 05:11:00,54.0,51.0,-100.00,WSW,242,2.0,7.0,90,0.00,,,0.00,0.000000,,2013-09-28 09:11:00,
2013-09-28 05:43:00,54.0,51.0,-100.00,WSW,242,2.0,7.0,90,0.00,,,0.00,0.000000,,2013-09-28 09:43:00,
2013-09-28 05:54:00,54.0,51.0,-100.00,WSW,242,2.0,7.0,90,0.00,,,0.00,0.000000,,2013-09-28 09:54:00,
2013-09-28 06:03:00,54.0,51.0,-100.00,WSW,242,2.0,7.0,90,0.00,,,0.00,0.000000,,2013-09-28 10:03:00,
2013-09-28 06:11:00,53.0,52.0,-100.00,NE,49,1.0,4.0,95,0.00,,,0.00,0.000000,,2013-09-28 10:11:00,
2013-09-28 06:43:00,53.0,52.0,-100.00,NE,49,1.0,4.0,95,0.00,,,0.00,0.000000,,2013-09-28 10:43:00,
2013-09-28 06:52:00,53.0,52.0,-100.00,NE,49,1.0,4.0,95,0.00,,,0.00,0.000000,,2013-09-28 10:52:00,
2013-09-28 07:03:00,53.0,52.0,-100.00,NE,49,1.0,4.0,95,0.00,,,0.00,0.000000,,2013-09-28 11:03:00,
2013-09-28 07:11:00,52.0,51.0,-100.00,WSW,244,2.0,4.0,98,0.00,,,0.00,0.000000,,2013-09-28 11:11:00,
2013-09-28 07:43:00,52.0,51.0,-100.00,WSW,244,2.0,4.0,98,0.00,,,0.00,0.000000,,2013-09-28 11:43:00,
2013-09-28 07:52:00,52.0,51.0,-100.00,WSW,244,2.0,4.0,98,0.00,,,0.00,0.000000,,2013-09-28 11:52:00,
2013-09-28 08:01:00,52.0,51.0,-100.00,WSW,244,2.0,4.0,98,0.00,,,0.00,0.000000,,2013-09-28 12:01:00,
2013-09-28 08:11:00,57.0,55.0,-100.00,West,273,3.0,5.0,92,0.00,,,0.00,49.000000,,2013-09-28 12:11:00,
2013-09-28 08:42:00,57.0,55.0,-100.00,West,273,3.0,5.0,92,0.00,,,0.00,49.000000,,2013-09-28 12:42:00,
2013-09-28 08:52:00,57.0,55.0,-100.00,West,273,3.0,5.0,92,0.00,,,0.00,49.000000,,2013-09-28 12:52:00,
2013-09-28 09:02:00,57.0,55.0,-100.00,West,273,3.0,5.0,92,0.00,,,0.00,49.000000,,2013-09-28 13:02:00,
2013-09-28 09:11:00,62.0,54.0,-100.00,West,265,3.0,6.0,74,0.00,,,0.00,274.000000,,2013-09-28 13:11:00,
2013-09-28 10:11:00,67.0,56.0,-100.00,WSW,247,2.0,5.0,68,0.00,,,0.00,498.000000,,2013-09-28 14:11:00,
2013-09-28 11:11:00,69.0,56.0,-100.00,SW,235,3.0,8.0,63,0.00,,,0.00,684.000000,,2013-09-28 15:11:00,
2013-09-28 11:44:00,69.0,56.0,-100.00,SW,235,3.0,8.0,63,0.00,,,0.00,684.000000,,2013-09-28 15:44:00,
2013-09-28 11:54:00,69.0,56.0,-100.00,SW,235,3.0,8.0,63,0.00,,,0.00,684.000000,,2013-09-28 15:54:00,
2013-09-28 12:05:00,69.0,56.0,-100.00,SW,235,3.0,8.0,63,0.00,,,0.00,684.000000,,2013-09-28 16:05:00,
2013-09-28 12:11:00,70.0,56.0,-100.00,NE,56,3.0,7.0,61,0.00,,,0.00,753.000000,,2013-09-28 16:11:00,
2013-09-28 12:43:00,70.0,56.0,-100.00,NE,56,3.0,7.0,61,0.00,,,0.00,753.000000,,2013-09-28 16:43:00,
2013-09-28 12:54:00,70.0,56.0,-100.00,NE,56,3.0,7.0,61,0.00,,,0.00,753.000000,,2013-09-28 16:54:00,
2013-09-28 13:03:00,70.0,56.0,-100.00,NE,56,3.0,7.0,61,0.00,,,0.00,753.000000,,2013-09-28 17:03:00,
2013-09-28 13:11:00,71.0,55.0,-100.00,WNW,292,3.0,7.0,58,0.00,,,0.00,715.000000,,2013-09-28 17:11:00,
2013-09-28 13:43:00,71.0,55.0,-100.00,WNW,292,3.0,7.0,58,0.00,,,0.00,715.000000,,2013-09-28 17:43:00,
2013-09-28 13:52:00,71.0,55.0,-100.00,WNW,292,3.0,7.0,58,0.00,,,0.00,715.000000,,2013-09-28 17:52:00,
2013-09-28 14:02:00,71.0,55.0,-100.00,WNW,292,3.0,7.0,58,0.00,,,0.00,715.000000,,2013-09-28 18:02:00,
2013-09-28 14:11:00,71.0,52.0,-100.00,South,171,2.0,7.0,52,0.00,,,-99.99,676.000000,,2013-09-28 18:11:00,
2013-09-28 14:42:00,71.0,52.0,-100.00,South,171,2.0,7.0,52,0.00,,,-99.99,676.000000,,2013-09-28 18:42:00,
2013-09-28 14:52:00,71.0,52.0,-100.00,South,171,2.0,7.0,52,0.00,,,-99.99,676.000000,,2013-09-28 18:52:00,
2013-09-28 15:02:00,71.0,52.0,-100.00,South,171,2.0,7.0,52,0.00,,,-99.99,676.000000,,2013-09-28 19:02:00,
2013-09-28 15:11:00,74.0,56.0,-100.00,NE,43,3.0,5.0,53,0.00,,,0.00,552.000000,,2013-09-28 19:11:00,
2013-09-28 15:42:00,74.0,56.0,-100.00,NE,43,3.0,5.0,53,0.00,,,0.00,552.000000,,2013-09-28 19:42:00,
2013-09-28 15:52:00,74.0,56.0,-100.00,NE,43,3.0,5.0,53,0.00,,,0.00,552.000000,,2013-09-28 19:52:00,
2013-09-28 16:03:00,74.0,56.0,-100.00,NE,43,3.0,5.0,53,0.00,,,0.00,552.000000,,2013-09-28 20:03:00,
2013-09-28 16:11:00,69.0,53.0,-100.00,SW,230,3.0,5.0,56,0.00,,,0.00,399.000000,,2013-09-28 20:11:00,
2013-09-28 16:43:00,69.0,53.0,-100.00,SW,230,3.0,5.0,56,0.00,,,0.00,399.000000,,2013-09-28 20:43:00,
2013-09-28 16:53:00,69.0,53.0,-100.00,SW,230,3.0,5.0,56,0.00,,,0.00,399.000000,,2013-09-28 20:53:00,
2013-09-28 17:02:00,69.0,53.0,-100.00,SW,230,3.0,5.0,56,0.00,,,0.00,399.000000,,2013-09-28 21:02:00,
2013-09-28 17:11:00,67.0,57.0,-100.00,NW,309,2.0,4.0,70,0.00,,,0.00,190.000000,,2013-09-28 21:11:00,
2013-09-28 17:44:00,67.0,57.0,-100.00,NW,309,2.0,4.0,70,0.00,,,0.00,190.000000,,2013-09-28 21:44:00,
2013-09-28 17:55:00,67.0,57.0,-100.00,NW,309,2.0,4.0,70,0.00,,,0.00,190.000000,,2013-09-28 21:55:00,
2013-09-28 18:04:00,67.0,57.0,-100.00,NW,309,2.0,4.0,70,0.00,,,0.00,190.000000,,2013-09-28 22:04:00,
2013-09-28 18:11:00,68.0,54.0,-100.00,North,5,2.0,5.0,60,0.00,,,0.00,136.000000,,2013-09-28 22:11:00,
2013-09-28 18:43:00,68.0,54.0,-100.00,North,5,2.0,5.0,60,0.00,,,0.00,136.000000,,2013-09-28 22:43:00,
2013-09-28 18:54:00,68.0,54.0,-100.00,North,5,2.0,5.0,60,0.00,,,0.00,136.000000,,2013-09-28 22:54:00,
2013-09-28 19:03:00,68.0,54.0,-100.00,North,5,2.0,5.0,60,0.00,,,0.00,136.000000,,2013-09-28 23:03:00,
2013-09-28 19:11:00,62.0,54.0,-100.00,NE,47,1.0,2.0,76,0.00,,,0.00,19.000000,,2013-09-28 23:11:00,
2013-09-28 19:43:00,62.0,54.0,-100.00,NE,47,1.0,2.0,76,0.00,,,0.00,19.000000,,2013-09-28 23:43:00,
2013-09-28 19:53:00,62.0,54.0,-100.00,NE,47,1.0,2.0,76,0.00,,,0.00,19.000000,,2013-09-28 23:53:00,
2013-09-28 20:02:00,62.0,54.0,-100.00,NE,47,1.0,2.0,76,0.00,,,0.00,19.000000,,2013-09-29 00:02:00,
2013-09-28 20:11:00,59.0,54.0,-100.00,North,11,0.0,2.0,85,0.00,,,0.00,2.000000,,2013-09-29 00:11:00,
2013-09-28 20:43:00,59.0,54.0,-100.00,North,11,0.0,2.0,85,0.00,,,0.00,2.000000,,2013-09-29 00:43:00,
2013-09-28 20:52:00,59.0,54.0,-100.00,North,11,0.0,2.0,85,0.00,,,0.00,2.000000,,2013-09-29 00:52:00,
2013-09-28 21:02:00,59.0,54.0,-100.00,North,11,0.0,2.0,85,0.00,,,0.00,2.000000,,2013-09-29 01:02:00,
2013-09-28 21:11:00,56.0,55.0,-100.00,East,89,1.0,2.0,95,0.00,,,0.00,0.000000,,2013-09-29 01:11:00,
2013-09-28 21:43:00,56.0,55.0,-100.00,East,89,1.0,2.0,95,0.00,,,0.00,0.000000,,2013-09-29 01:43:00,
2013-09-28 21:52:00,56.0,55.0,-100.00,East,89,1.0,2.0,95,0.00,,,0.00,0.000000,,2013-09-29 01:52:00,
2013-09-28 22:03:00,56.0,55.0,-100.00,East,89,1.0,2.0,95,0.00,,,0.00,0.000000,,2013-09-29 02:03:00,
2013-09-28 22:11:00,55.0,54.0,-100.00,SSE,168,2.0,4.0,98,0.00,,,0.00,0.000000,,2013-09-29 02:11:00,
2013-09-28 22:43:00,55.0,54.0,-100.00,SSE,168,2.0,4.0,98,0.00,,,0.00,0.000000,,2013-09-29 02:43:00,
2013-09-28 22:53:00,55.0,54.0,-100.00,SSE,168,2.0,4.0,98,0.00,,,0.00,0.000000,,2013-09-29 02:53:00,
2013-09-28 23:03:00,55.0,54.0,-100.00,SSE,168,2.0,4.0,98,0.00,,,0.00,0.000000,,2013-09-29 03:03:00,
2013-09-28 23:11:00,57.0,53.0,-100.00,WSW,248,3.0,8.0,88,0.00,,,0.00,0.000000,,2013-09-29 03:11:00,
2013-09-28 23:44:00,57.0,53.0,-100.00,WSW,248,3.0,8.0,88,0.00,,,0.00,0.000000,,2013-09-29 03:44:00,
2013-09-28 23:55:00,57.0,53.0,-100.00,WSW,248,3.0,8.0,88,0.00,,,0.00,0.000000,,2013-09-29 03:55:00,